Location: Asheville, NC
(35.6000°N, 82.5500°W)
Time: 10:49:17

SRMSAT - Pass Details

Date: 12 January 2018
Orbit: 849 x 866 km, 20.0° (Epoch: 22 March)

Event Time Altitude Azimuth Distance (km) Brightness Sun altitude
Rises 19:30:58 0° 240° (WSW) 3,423 ? -22.6°
Reaches altitude 10° 19:34:27 10° 221° (SW) 2,484 ? -23.3°
Maximum altitude 19:38:09 17° 182° (S) 2,029 ? -24.0°
Enters shadow 19:40:39 13° 154° (SSE) 2,243 ? -24.5°
